BVX580 YSSY-NZAA

Flight info

Callsign BVX580
Flight time N/A
Altitude 39000
Route EVONN L521 LUNBI
Aircraft A35K/H-SDE2E3GHIJ3J4J5LM1ORWXY/LB1D1

Departure

Time 2026-05-07 06:56
Airport Sydney Kingsford Smith International Airport (YSSY)

Arrival

Time N/A
Airport Auckland International Airport (NZAA)
Time Latitude Longitude Altitude Speed Heading
2026-05-07 06:24 -33.93857 151.16984 27 ft 0 kts 253°
2026-05-07 06:42 -33.93849 151.17007 26 ft 4 kts 234°
2026-05-07 06:42 -33.93835 151.17032 25 ft 4 kts 240°
2026-05-07 06:42 -33.93819 151.17055 24 ft 4 kts 200°
2026-05-07 06:43 -33.93794 151.17057 26 ft 4 kts 165°
2026-05-07 06:43 -33.93773 151.17050 26 ft 1 kts 167°
2026-05-07 06:43 -33.93769 151.17049 26 ft 0 kts 167°
2026-05-07 06:46 -33.93770 151.17049 26 ft 1 kts 167°
2026-05-07 06:46 -33.93787 151.17054 26 ft 4 kts 167°
2026-05-07 06:46 -33.93821 151.17063 24 ft 6 kts 167°
2026-05-07 06:47 -33.93873 151.17077 27 ft 9 kts 168°
2026-05-07 06:47 -33.93934 151.17092 26 ft 9 kts 168°
2026-05-07 06:47 -33.93991 151.17137 29 ft 11 kts 111°
2026-05-07 06:47 -33.93975 151.17231 26 ft 13 kts 71°
2026-05-07 06:48 -33.93943 151.17350 27 ft 17 kts 74°
2026-05-07 06:48 -33.93910 151.17493 27 ft 17 kts 74°
2026-05-07 06:48 -33.93876 151.17640 25 ft 19 kts 74°
2026-05-07 06:48 -33.93838 151.17798 28 ft 19 kts 73°
2026-05-07 06:49 -33.93806 151.17933 34 ft 16 kts 73°
2026-05-07 06:49 -33.93775 151.18059 36 ft 16 kts 74°
2026-05-07 06:49 -33.93742 151.18199 36 ft 18 kts 74°
2026-05-07 06:49 -33.93705 151.18355 37 ft 21 kts 74°
2026-05-07 06:50 -33.93664 151.18530 36 ft 22 kts 74°
2026-05-07 06:50 -33.93631 151.18665 36 ft 10 kts 73°
2026-05-07 06:50 -33.93610 151.18760 36 ft 13 kts 75°
2026-05-07 06:50 -33.93596 151.18876 36 ft 15 kts 97°
2026-05-07 06:51 -33.93632 151.18933 31 ft 0 kts 153°
2026-05-07 06:53 -33.93639 151.18936 31 ft 4 kts 155°
2026-05-07 06:53 -33.93682 151.18956 30 ft 9 kts 161°
2026-05-07 06:54 -33.93743 151.18966 31 ft 8 kts 202°
2026-05-07 06:54 -33.93770 151.18914 32 ft 8 kts 252°
2026-05-07 06:54 -33.93773 151.18902 32 ft 0 kts 253°
2026-05-07 06:56 -33.93797 151.18808 31 ft 46 kts 253°
2026-05-07 06:56 -33.93978 151.18047 33 ft 141 kts 255°
2026-05-07 06:56 -33.94310 151.16689 399 ft 194 kts 253°
2026-05-07 06:56 -33.94710 151.14953 1144 ft 234 kts 254°
2026-05-07 06:57 -33.95156 151.12935 2272 ft 256 kts 254°
2026-05-07 06:57 -33.95589 151.10964 3598 ft 234 kts 253°
2026-05-07 06:57 -33.96001 151.09105 4465 ft 227 kts 252°
2026-05-07 06:57 -33.96415 151.07265 4915 ft 229 kts 252°
2026-05-07 06:58 -33.96834 151.05406 4997 ft 230 kts 254°
2026-05-07 06:58 -33.97257 151.03536 4995 ft 231 kts 250°
2026-05-07 06:58 -33.97962 151.01843 5275 ft 226 kts 234°
2026-05-07 06:58 -33.99098 151.00521 5778 ft 232 kts 215°
2026-05-07 06:59 -34.00634 150.99832 6486 ft 242 kts 192°
2026-05-07 06:59 -34.02324 151.00030 7269 ft 251 kts 168°
2026-05-07 06:59 -34.03830 151.01168 8098 ft 265 kts 143°
2026-05-07 06:59 -34.04828 151.03077 8884 ft 281 kts 121°
2026-05-07 07:00 -34.05295 151.05443 9630 ft 299 kts 99°
2026-05-07 07:00 -34.05164 151.07965 10314 ft 310 kts 89°
2026-05-07 07:00 -34.04819 151.10653 10694 ft 330 kts 87°
2026-05-07 07:00 -34.04421 151.13455 11018 ft 348 kts 86°
2026-05-07 07:01 -34.04026 151.16391 11389 ft 362 kts 87°
2026-05-07 07:01 -34.03662 151.19383 11945 ft 369 kts 88°
2026-05-07 07:01 -34.03334 151.22476 12578 ft 374 kts 89°
2026-05-07 07:01 -34.03055 151.25610 13243 ft 377 kts 90°
2026-05-07 07:02 -34.02831 151.28774 13898 ft 381 kts 91°
2026-05-07 07:02 -34.02668 151.31986 14494 ft 384 kts 92°
2026-05-07 07:02 -34.02853 151.35178 15099 ft 382 kts 106°
2026-05-07 07:02 -34.03444 151.38313 15592 ft 386 kts 110°
2026-05-07 07:03 -34.04193 151.41421 16177 ft 388 kts 114°
2026-05-07 07:03 -34.05019 151.44546 16788 ft 391 kts 114°
2026-05-07 07:03 -34.05866 151.47677 17386 ft 394 kts 114°
2026-05-07 07:03 -34.06425 151.49764 17816 ft 396 kts 114°
2026-05-07 07:04 -34.07264 151.52945 18352 ft 400 kts 113°
2026-05-07 07:04 -34.08098 151.56174 18893 ft 403 kts 112°
2026-05-07 07:04 -34.08924 151.59426 19267 ft 410 kts 112°
2026-05-07 07:04 -34.09754 151.62725 19693 ft 414 kts 112°
2026-05-07 07:05 -34.10593 151.66077 19957 ft 425 kts 112°
2026-05-07 07:05 -34.11461 151.69542 20274 ft 430 kts 111°
2026-05-07 07:05 -34.12321 151.73003 20790 ft 432 kts 112°